Flag for Austria Weather past 2 weeks in Waidhofen an der Ybbs, Lower Austria, Austria

Now
59 °F

Cool.


Feels Like: 59 °F
Forecast: 51 / 64 °F
Wind: 1 mph from Southwest

Location: Amstetten

Current Time: Oct 1, 2014 at 1:58:24 AM

Latest Report: Oct 1, 2014 at 1:00 AM


Visibility: N/A

Pressure: 30.28 "Hg

Humidity: 98%

Dew point: 58 °F

Location of Waidhofen an der YbbsLocation

Historic Weather in Waidhofen an der Ybbs — Graph

°F

Waidhofen an der Ybbs temperature yesterday

Maximum temperature yesterday: 69 °F (at 5:00 PM)
Minimum temperature yesterday: 56 °F (at 7:00 AM)
Average temperature yesterday: 60 °F

Past Weeks' High & Low Weather Summary

 TemperatureHumidityPressure
High76 °F (Sep 17, 4:00 PM)100% (Sep 24, 8:00 AM)30.42 "Hg (Sep 24, 8:00 AM)
Low37 °F (Sep 24, 7:00 AM)40% (Sep 17, 5:00 PM)29.86 "Hg (Sep 22, 1:00 AM)
Average58 °F86%30.11 "Hg
* Reported Midnight between Sep 15 and Sep 16 — Midnight between Sep 30 and Oct 1, Waidhofen an der Ybbs, Weather by CustomWeather, © 2014

Note: Actual official high and low records may vary slightly from our data, if they occured in-between our weather recording intervals... More about our weather records

Advertising

Waidhofen an der Ybbs weather history for previous 24 hours

 ConditionsComfort  
Time TempWeatherWind HumidityBarometerVisibility
12:00 AM
Oct 1
60 °FCool.1 mph97%30.28 "HgN/A
11:00 PM
Sep 30
59 °FCool.1 mph98%30.28 "HgN/A
10:00 PM60 °FCool.1 mph96%30.28 "HgN/A
9:00 PM61 °FCool.1 mph95%30.28 "HgN/A
8:00 PM61 °FCool.No wind93%30.27 "HgN/A
7:00 PM62 °FCool.No wind90%30.27 "HgN/A
6:00 PM65 °FMild.1 mph83%30.25 "HgN/A
5:00 PM69 °FMild.2 mph75%30.24 "HgN/A
4:00 PM68 °FMild.1 mph76%30.25 "HgN/A
3:00 PM65 °FMild.2 mph81%30.28 "HgN/A
2:00 PM63 °FMild.2 mph85%30.29 "HgN/A
1:00 PM61 °FCool.2 mph90%30.31 "HgN/A
12:00 PM59 °FCool.2 mph91%30.31 "HgN/A
11:00 AM58 °FCool.1 mph95%30.32 "HgN/A
10:00 AM57 °FCool.1 mph97%30.33 "HgN/A
9:00 AM56 °FCool.1 mph98%30.32 "HgN/A
8:00 AM56 °FOvercast.1 mph100%30.32 "HgN/A
7:00 AM56 °FCool.1 mph98%30.30 "HgN/A
6:00 AM56 °FCool.1 mph99%30.30 "HgN/A
5:00 AM56 °FCool.1 mph99%30.30 "HgN/A
4:00 AM56 °FCool.1 mph98%30.30 "HgN/A
3:00 AM56 °FCool.No wind98%30.30 "HgN/A
2:00 AM56 °FCool.No wind98%30.30 "HgN/A
1:00 AM56 °FCool.1 mph98%30.30 "HgN/A
Weather by CustomWeather, © 2014

See weather overviewHow to use our weather pages